Location: Hurecourt
(47.9030°N, 6.0653°E)
Time: 19:13:39
(UTC+00:00)

Cosmos 2016 Rocket - Pass Details

Date: 14 July 2020
Orbit: 948 x 999 km, 83.0° (Epoch: 14 August)

Event Time Altitude Azimuth Distance (km) Brightness Sun altitude
Exits shadow 01:53:41 20° 208° (SSW) 2,033 5.0 -14.4°
Maximum altitude 01:57:55 61° 282° (WNW) 1,093 4.2 -14.1°
Drops below altitude 10° 02:04:06 10° 3° (N) 2,733 7.3 -13.5°
Sets 02:06:42 0° 7° (N) 3,692 8.2 -13.2°
